Location: Brazey
(47.1742°N, 4.2916°E)
Time: 07:19:32
(UTC+00:00)

Daily predictions for brighter satellites

Satellite Brightness Start Highest point End
(mag) Time Altitude Azimuth Time Altitude Azimuth Time Altitude Azimuth
ATLAS 2AS CENTAUR R/B 3.1 16:43:07 10° SSW 16:51:03 79° SE 16:58:54 10° NE
Lacrosse 5 3.0 16:49:05 10° NW 16:53:26 28° N 16:57:47 10° ENE
Cosmos 1707 4.3 16:54:29 10° SW 16:58:03 36° WNW 17:01:39 10° N
Cosmos 1634 Rocket 4.2 16:54:19 10° N 17:00:24 52° ENE 17:06:29 10° SSE
Okean-O 4.1 17:00:52 10° E 17:03:44 17° ENE 17:06:37 10° NNE
AQUARIUS 4.1 17:00:20 10° SSE 17:04:48 77° ENE 17:09:19 10° N
COSMO-SKYMED 1 3.6 17:04:10 10° NE 17:07:50 25° E 17:11:26 10° SSE
Cosmos 1536 Rocket 3.5 17:04:25 10° S 17:08:46 78° E 17:13:12 10° NNE
Cosmos 2227 Rocket 3.5 17:04:06 10° WSW 17:09:20 38° NW 17:14:37 10° NNE
Landsat 5 3.5 17:06:03 10° NNE 17:10:05 80° WNW 17:13:58 10° SSW
Cosmos 1674 3.0 17:07:11 10° SSW 17:10:59 73° W 17:14:51 10° N
SeaSat 1 4.4 17:07:14 10° N 17:11:07 24° NW 17:14:59 10° W
RESURS DK-1 2.6 17:07:40 10° S 17:11:41 52° ESE 17:15:43 10° NE
Okean O Rocket 1.6 17:07:23 10° SSE 17:11:50 79° ENE 17:16:18 10° NNW
ERS-2 3.7 17:12:03 10° NE 17:14:24 16° E 17:16:47 10° SE
CZ-4C R/B 3.4 17:13:10 10° N 17:16:16 56° WNW 17:19:21 10° SSW
CZ-4B R/B 2.3 17:13:36 10° NNE 17:16:40 30° E 17:19:39 10° SSE
SL-24 R/B 4.3 17:16:04 10° S 17:20:21 80° WSW 17:24:54 10° NNW
CZ-4C R/B 2.4 17:16:58 10° SW 17:21:57 69° NW 17:28:01 10° NE
CZ-4B R/B 3.5 17:18:40 10° S 17:24:09 74° WSW 17:29:48 10° NNW
Cosmos 1844 Rocket 4.3 17:21:58 10° ESE 17:24:27 13° E 17:25:29 12° E
USA 234 3.9 17:19:06 11° ENE 17:24:48 40° N 17:30:48 10° WNW
Tsikada Rocket 4.2 17:18:31 10° S 17:24:52 81° W 17:31:11 10° N
FengYun 1-2 T 4.3 17:19:56 10° SSE 17:25:29 86° WSW 17:31:07 10° NNW
Cosmos 1400 Rocket 3.9 17:23:03 10° NNW 17:27:04 51° W 17:31:01 10° S
CZ-2D R/B 3.6 17:24:54 10° SE 17:28:33 42° ENE 17:32:12 10° N
Cosmos 783 Rocket 4.5 17:24:40 10° NNW 17:29:53 64° ENE 17:35:04 10° SSE
Cosmos 1354 Rocket 4.1 17:24:40 10° S 17:29:55 64° ESE 17:35:12 10° NNE
Meteor 2-5 Rocket 3.7 17:24:35 10° S 17:30:06 65° E 17:35:36 10° NNE
SL-14 R/B 3.2 17:26:49 10° S 17:30:37 66° E 17:34:30 10° NNE
Cosmos 1025 Rocket 4.4 17:27:32 10° SW 17:31:37 40° WNW 17:35:45 10° N
Cosmos 1603 3.7 17:26:27 10° NNW 17:32:11 82° ENE 17:37:56 10° SSE
IRS-1C Rocket 4.3 17:28:09 10° SE 17:33:11 49° ENE 17:38:15 10° N
Cosmos 2297 Rocket 4.2 17:30:09 10° W 17:34:36 23° NW 17:39:02 10° N
Cosmos 2142 Rocket 4.4 17:30:51 10° N 17:37:02 69° E 17:43:08 10° SSE
COSMOS 2455 3.8 17:32:07 10° SSE 17:37:05 28° ESE 17:40:26 17° ENE
ATLAS 3B R/B 3.1 17:32:15 10° NW 17:39:11 73° SW 17:46:23 10° SSE
Cosmos 1606 Rocket 3.5 17:39:28 10° N 17:43:50 68° E 17:48:12 10° SSE
YAOGAN 1 3.1 17:40:10 10° SE 17:44:06 35° ENE 17:48:03 10° N
Cosmos 1892 Rocket 4.0 17:40:29 10° SSE 17:44:30 38° E 17:48:30 10° NNE
Cosmos 968 Rocket 4.4 17:39:35 10° SW 17:44:31 48° WNW 17:49:29 10° NNE
H-2A R/B 2.9 17:41:54 10° N 17:46:17 52° WNW 17:50:34 10° SW
Cosmos 1626 2.9 17:45:47 10° SSW 17:49:24 53° WNW 17:53:03 10° N
CZ-2C R/B 3.1 17:44:25 10° SSE 17:49:35 68° ENE 17:55:04 10° N
CSL-04 Rocket 4.3 17:45:10 10° ESE 17:49:52 32° ENE 17:54:38 10° N
Cosmos 1939 Rocket 3.1 17:46:03 10° S 17:50:11 74° WSW 17:54:19 10° NNW
Nadezhda 4 Rocket 4.5 17:45:32 10° SSE 17:51:10 36° E 17:56:45 10° NNE
CZ-4 R/B 4.3 17:47:34 10° SSE 17:51:40 69° ENE 17:55:49 10° N
NOSS 7 (E) 4.3 17:47:53 10° SW 17:51:40 86° SE 17:53:16 28° NE
SKYMED 2 3.5 17:51:42 10° NNE 17:56:05 78° ESE 18:00:24 10° S
CZ-4 R/B 1.5 17:52:13 10° SSE 17:56:15 52° ENE 18:00:14 10° N
MOS 1 Rocket 3.1 17:53:23 10° NNE 17:57:43 59° E 18:01:56 10° S
ATLAS 5 CENTAUR R/B 1.4 17:54:20 10° SW 17:58:20 89° NW 18:01:05 23° NE
BREEZE-M DEB (TANK) 4.0 17:57:46 10° WNW 18:00:51 28° SW 18:02:38 12° SSE
CREW DRAGON DEMO-1 DEB 3.7 18:00:20 10° WNW 18:03:00 31° N 18:03:09 31° N
Meteor 2-10 Rocket 3.6 17:58:51 10° N 18:04:25 61° ENE 18:09:44 10° SSE
Feng Yun 1-1 Rocket 4.5 18:01:29 10° S 18:06:52 70° WSW 18:12:22 10° NNW
Cosmos 2058 Rocket 3.0 18:04:02 10° N 18:08:30 61° E 18:12:57 10° SSE
Cosmos 2228 3.6 18:04:32 10° NNW 18:08:44 59° W 18:12:56 10° S
SJ 16-02 2.8 18:06:41 10° SSE 18:08:46 20° SE 18:08:46 20° SE
Cosmos 1315 Rocket 3.8 18:06:32 10° NNW 18:10:22 48° W 18:14:13 10° S
H-2A R/B 1.9 18:05:57 10° SSE 18:10:48 61° ENE 18:15:49 10° N
Cosmos 2263 Rocket 2.6 18:06:06 10° SW 18:11:45 65° WNW 18:17:04 12° NNE
SAR-Lupe-4 3.5 18:12:53 46° NE 18:13:42 60° ESE 18:17:13 10° S
Okean 1-7 Rocket 3.7 18:09:30 10° S 18:13:54 52° E 18:16:14 26° NNE
EXPRESS MD2 4.0 18:06:38 10° WNW 18:14:53 89° SSW 18:16:50 35° ESE
Cosmos 1455 4.4 18:12:49 10° N 18:13:18 13° N 18:13:18 13° N
Meteor 1-24 Rocket 3.9 18:11:11 10° SSW 18:16:32 67° WNW 18:21:50 10° N
Cosmos 1300 4.3 18:15:07 10° NNW 18:18:39 37° W 18:22:10 10° SSW
OPS 8737 4.3 18:16:45 10° NW 18:19:53 70° NE 18:20:11 65° E
Cosmos 1689 Rocket 3.4 18:22:28 30° S 18:22:28 30° S 18:24:04 10° S
Cosmos 923 Rocket 4.5 18:17:11 10° N 18:22:11 38° ENE 18:22:19 38° ENE
SAR-Lupe-1 3.9 18:24:36 61° NNE 18:25:10 83° ESE 18:28:44 10° SSW
Cosmos 1818 4.3 18:20:41 10° S 18:25:19 33° ESE 18:25:19 33° ESE
Cosmos 1943 4.4 18:22:43 10° NW 18:28:03 43° WSW 18:33:20 10° S
ISS -1.1 18:28:08 10° S 18:28:24 11° S 18:28:24 11° S
Helios 1A Rocket 2.8 18:26:21 10° SSE 18:30:29 86° ENE 18:34:39 10° NNW
Cosmos 1680 Rocket 4.4 18:25:56 10° N 18:29:33 31° NNE 18:29:33 31° NNE
Meteor 2-13 Rocket 4.3 18:24:43 10° S 18:30:44 66° E 18:36:49 10° NNE
USA 267 3.6 18:29:51 36° E 18:31:50 45° SE 18:38:02 10° SSW
SJ-11-01 4.2 18:28:12 10° SSE 18:32:55 88° ENE 18:37:38 10° NNW
ARGOS 3.0 18:28:10 10° SSE 18:33:29 70° ENE 18:38:51 10° N
CSL-04 Debris 4.0 18:29:27 10° SSE 18:34:49 74° ENE 18:40:13 10° NNW
Cosmos 1844 4.3 18:30:39 10° S 18:35:07 37° SE 18:35:07 37° SE
Meteor 1-21 Rocket 4.2 18:31:38 10° S 18:37:00 55° E 18:38:13 46° NE
Lacrosse 5 1.9 18:32:19 10° NW 18:37:18 54° NNE 18:37:41 53° NE
Cosmos 2082 Rocket 4.3 18:36:39 10° N 18:37:45 12° NNE 18:37:45 12° NNE
Okean-O 3.1 18:35:22 10° S 18:39:45 62° W 18:44:10 10° NNW
USA 281 4.4 18:42:04 24° NNE 18:42:04 24° NNE 18:46:06 10° N
CZ-2C R/B 3.0 18:43:09 45° SE 18:43:09 45° SE 18:47:41 10° S
ATLAS 2AS CENTAUR R/B 4.0 18:35:28 10° W 18:42:47 38° NNW 18:48:01 18° NNE
COSMO-SKYMED 1 4.1 18:40:05 10° N 18:44:03 35° WNW 18:47:59 10° SW
Cosmos 1833 Rocket 4.4 18:40:23 10° N 18:42:29 17° NNE 18:42:29 17° NNE
ERS-2 3.4 18:46:37 26° NNW 18:48:07 39° WNW 18:51:30 10° SW
CZ-4B R/B 4.1 18:46:11 10° NNW 18:48:40 19° WNW 18:51:07 10° WSW
Cosmos 158 Rocket 3.9 18:46:12 10° NNW 18:51:25 68° ENE 18:51:25 68° ENE
Cosmos 2195 Rocket 4.5 18:47:31 10° S 18:53:41 59° E 18:54:34 54° ENE
USA 234 3.2 19:06:27 61° ENE 19:07:14 67° NNE 19:13:44 10° NW
Cosmos 1844 Rocket 2.6 19:01:45 10° SSW 19:07:13 80° SSE 19:07:13 80° SSE
CZ-4C R/B 4.0 19:07:14 10° WNW 19:11:42 24° NNW 19:13:43 20° N
Cosmos 1092 Rocket 3.8 19:09:16 10° S 19:15:29 89° W 19:17:18 49° N
Iridium 4 Rocket 3.8 19:10:30 10° N 19:23:28 - S 19:15:35 68° NNW
Meteor 2-8 Rocket 4.3 19:10:34 10° N 19:16:19 80° NNE 19:16:19 80° NNE
COSMOS 2455 3.2 19:16:40 10° SW 19:22:38 60° NW 19:23:37 53° NNW
Cosmos 2344 4.2 19:15:18 10° NW 19:24:18 65° NE 19:26:41 55° E
CZ-4 R/B 4.4 19:29:01 10° SW 19:31:34 16° W 19:34:04 10° NW
ATLAS 5 CENTAUR R/B 3.9 19:40:28 10° WNW 19:42:38 19° NW 19:42:38 19° NW
SJ 16-02 3.8 19:44:33 10° SW 19:45:49 18° WSW 19:45:49 18° WSW
H-2A R/B 4.5 19:47:17 10° SW 19:50:42 18° W 19:54:11 10° NW
NOSS 3-1 (C) 4.1 19:50:22 10° NW 19:56:36 68° NNW 19:56:36 68° NNW
USA 267 4.1 20:17:12 44° W 20:17:12 44° W 20:21:33 10° WSW
Lacrosse 5 4.4 20:15:31 10° WNW 20:16:55 18° WNW 20:16:55 18° WNW
